Preview of NWS' New Version of Forecast
This preview is not operational and should not be used for support decisions.

Regional Weather Roundup (RWR)

Issued by National Weather Service (NWS)

                            
000
ASUS43 KLSX 231557
RWRMO 

WEATHER SUMMARY FOR MISSOURI
NATIONAL WEATHER SERVICE SPRINGFIELD MO
1000 AM CST SAT FEB 23 2019

NOTE: "FAIR" INDICATES FEW OR NO CLOUDS BELOW 12,000 FEET WITH NO
       SIGNIFICANT WEATHER AND/OR OBSTRUCTIONS TO VISIBILITY.
       CURRENT SKY AND/OR WEATHER CONDITIONS ARE NOT AVAILABLE FOR
       CHILLICOTHE AND FARMINGTON.

MOZ001>031-035>038-043-044-053-054-231700-
...NORTHERN AND WESTERN MISSOURI...
  
CITY           SKY/WX    TMP DP  RH WIND       PRES   REMARKS
KANSAS CTY INT FOG       36  35  96 SE13      29.74F VSB 1/16WCI  27  
LEE'S SUMMIT   LGT RAIN  36  36 100 NE9       29.69F VSB 1   WCI  29  
ST JOSEPH      CLOUDY    35  31  85 NE17      29.70F FOG     WCI  25  
CHILLICOTHE      N/A     37  37 100 E5        29.79F                  
     
$$
MOZ066>068-077>081-088>096-101>105-231700-
...SOUTHWEST MISSOURI...
  
CITY           SKY/WX    TMP DP  RH WIND       PRES   REMARKS
SPRINGFIELD    TSTM      49  47  93 SE15      29.68F FOG              
JOPLIN         CLOUDY    53  51  93 SE10      29.64F                  
BRANSON        LGT RAIN  41  41 100 SE16      29.71F VSB 1/4          
               
$$
MOZ032>034-039>042-045>050-055>058-069>072-231700-
...CENTRAL MISSOURI...  
  
CITY           SKY/WX    TMP DP  RH WIND       PRES   REMARKS
COLUMBIA       NOT AVBL                                               
JEFFERSON CITY LGT RAIN  45  42  89 NE7       29.79F FOG              
ROLLA          CLOUDY    49  48  97 SE9       29.75F FOG              
SEDALIA        LGT RAIN  38  32  79 NE8       29.73F VSB 1/4          
WARRENSBURG    CLOUDY    36  36 100 NE12      29.73F FOG     WCI  27  
               
$$
MOZ051-052-059>065-231700-
...EAST CENTRAL MISSOURI...
  
CITY           SKY/WX    TMP DP  RH WIND       PRES   REMARKS
ST LOUIS INTL  FOG       45  44  97 SE10      29.84F VSB 3/4          
                   
$$
MOZ072>076-082>087-097>100-106>115-231700-
...SOUTH CENTRAL AND SOUTHEAST MISSOURI...
  
CITY           SKY/WX    TMP DP  RH WIND       PRES   REMARKS
CAPE GIRARDEAU LGT RAIN  49  47  93 E6        29.87F FOG              
POPLAR BLUFF   FOG       47  47 100 NE6       29.85F VSB 1/4          
WEST PLAINS    LGT RAIN  47  47 100 SE10      29.81S VSB 3/4          
                                       
$$